Current weather by "City, St" or "zip code"  
 

Current Conditions: Ellsworth Air Force Base, SD

Fair


85.0 F

Last Updated on Aug 9 2022, 7:56 pm MDT
Humidity: 34%
Wind Speed: SE 6.9 mph
Barometer 30.08 in
Dewpoint: 53.4 F
Visibility: 10.00 mi
Precip: --
Heat Index: 83 F
Wind Chill: NA
Current conditions at:

Ellsworth Air Force Base, SD (KRCA)

Lat: 44.15 Lon: 103.1

Local Radar Image active severe weather and emergency alerts image image weather storm and storm spotter reports image weather observation monitoring service image
Local
Radar
Active
Alerts
Storm Reports Obs
Monitoring

Sign-up For Email & Text Message Weather Alert Notification Services



Advertise Here

Observation History for Ellsworth Air Force Base, SD


Time Wind
(mph)
Vis
(mi)
Weather Precip (in) Temperature (F) Relative
Humidity
Wind
Chill
(F)
Heat
Index
(F)
Pressure
Air Dwpt altimeter
(in)
sea level
(mb)
Rmks
7:56 pm MDT SE 6.9 10.00 Fair -- 85.0 53.4 34% NA 83 30.08 1015.8
6:56 pm MDT E 6.9 10.00 Fair -- 93.0 47.1 21% NA 89 30.07 1015.3
5:56 pm MDT E 8.1 10.00 A Few Clouds -- 95.0 46.2 19% NA 91 30.06 1015.2
4:56 pm MDT E 11.5 10.00 A Few Clouds -- 96.0 45.7 18% NA 92 30.06 1015.1
3:56 pm MDT E 10.4 10.00 A Few Clouds -- 96.0 48.6 20% NA 93 30.06 1014.9
2:56 pm MDT NE 4.6 10.00 A Few Clouds -- 96.0 47.1 19% NA 92 30.06 1015.1
1:56 pm MDT E 5.8 10.00 Fair -- 95.0 46.6 19% NA 91 30.07 1015.5
12:56 pm MDT E 6.9 10.00 Fair -- 94.0 47.1 20% NA 90 30.09 1016.0
11:56 am MDT E 9.2 10.00 Fair -- 92.0 48.0 22% NA 89 30.09 1016.0
10:56 am MDT NE 9.2 10.00 Fair -- 91.0 50.4 25% NA 88 30.09 1016.0
9:56 am MDT N 5.8 10.00 Fair -- 90.0 50.7 26% NA 87 30.08 1015.5
7:56 am MDT N 6.9 10.00 Fair -- 76.0 53.1 45% NA NA 30.07 1015.6
5:56 am MDT NW 4.6 10.00 Fair -- 63.0 52.2 68% 64 NA 30.03 1014.4
4:56 am MDT NW 6.9 10.00 Fair -- 64.0 53.1 69% NA NA 30.01 1013.7
3:56 am MDT W 4.6 10.00 Fair -- 68.0 53.8 61% NA NA 30.01 1013.5
2:56 am MDT SW 4.6 10.00 Fair -- 63.0 54.5 75% 64 NA 29.99 1013.0
1:56 am MDT SW 6.9 10.00 Fair -- 68.0 54.5 63% NA NA 29.99 1012.8
12:56 am MDT S 5.8 10.00 Fair -- 72.0 54.5 55% NA NA 30.01 1013.5
11:56 pm MDT SW 3.5 10.00 Fair -- 73.0 55.6 54% NA NA 30.02 1013.9
10:56 pm MDT S 5.8 10.00 Fair -- 74.0 56.7 54% NA NA 30.02 1013.9

Regional Weather Observation


Rapid City, Rapid City Regional Airport, SD (KRAP)

Fair
82.0 F

Spearfish / Clyde Ice, SD (KSPF)

Fair
75.0 F

Custer, Custer County Airport, SD (KCUT)

Fair
79.0 F

Hulett Municipal Airport, WY (KW43)

Fair
79.0 F

Mondell Field, WY (KECS)

Fair
86.0 F

Faith, SD (KD07)

NULL
83.0 F

Advertise Here


Advertise Here